�������l�o���
Date,Time,MP-1(��Sv/h),MP-2(��Sv/h),MP-3(��Sv/h),MP-4(��Sv/h),MP-5(��Sv/h),MP-6(��Sv/h),MP-7(��Sv/h),MP-8(��Sv/h),����,����(m/s),���J
2021/04/19,00:00,0.626,0.911,0.581,1.123,0.788,0.374,0.647,0.607,�쐼,7.4,��
2021/04/19,00:10,0.626,0.914,0.582,1.123,0.785,0.373,0.647,0.609,�쐼,5.3,��
2021/04/19,00:20,0.626,0.915,0.583,1.125,0.787,0.372,0.648,0.606,�쐼,5.3,��
2021/04/19,00:30,0.625,0.914,0.582,1.125,0.787,0.374,0.647,0.610,�쐼,6.8,��
2021/04/19,00:40,0.625,0.915,0.582,1.124,0.787,0.373,0.648,0.608,���쐼,5.7,��
2021/04/19,00:50,0.624,0.917,0.582,1.124,0.788,0.373,0.648,0.608,���쐼,6.5,��
2021/04/19,01:00,0.625,0.916,0.582,1.122,0.786,0.373,0.647,0.609,���쐼,5.6,��
2021/04/19,01:10,0.626,0.913,0.583,1.124,0.787,0.373,0.648,0.609,�쐼,5.2,��
2021/04/19,01:20,0.623,0.915,0.581,1.127,0.787,0.371,0.648,0.608,�쐼,5.3,��
2021/04/19,01:30,0.625,0.913,0.583,1.124,0.787,0.372,0.647,0.608,���쐼,6.9,��
2021/04/19,01:40,0.624,0.913,0.581,1.124,0.787,0.373,0.645,0.608,���쐼,6.2,��
2021/04/19,01:50,0.624,0.913,0.582,1.125,0.787,0.371,0.647,0.609,���쐼,6.1,��
2021/04/19,02:00,0.625,0.912,0.582,1.122,0.788,0.371,0.647,0.607,��,4.9,��
2021/04/19,02:10,0.621,0.914,0.582,1.124,0.788,0.373,0.648,0.607,���쐼,4.6,��
2021/04/19,02:20,0.625,0.913,0.582,1.124,0.787,0.371,0.647,0.608,��,4.7,��
2021/04/19,02:30,0.623,0.914,0.581,1.123,0.788,0.371,0.647,0.608,���쐼,4.2,��
2021/04/19,02:40,0.624,0.914,0.582,1.123,0.788,0.372,0.646,0.607,���쐼,5.8,��
2021/04/19,02:50,0.624,0.914,0.580,1.124,0.788,0.372,0.646,0.607,���쐼,4.6,��
2021/04/19,03:00,0.623,0.914,0.583,1.124,0.787,0.371,0.646,0.607,���쐼,5.0,��
2021/04/19,03:10,0.625,0.914,0.584,1.124,0.788,0.370,0.647,0.607,���쐼,5.8,��
2021/04/19,03:20,0.624,0.912,0.581,1.125,0.788,0.371,0.648,0.607,���쐼,4.5,��
2021/04/19,03:30,0.624,0.913,0.583,1.124,0.788,0.372,0.647,0.606,�쐼,3.4,��
2021/04/19,03:40,0.624,0.913,0.582,1.126,0.788,0.372,0.647,0.607,��쐼,2.9,��
2021/04/19,03:50,0.625,0.915,0.582,1.125,0.788,0.371,0.648,0.607,�쐼,3.2,��
2021/04/19,04:00,0.624,0.915,0.582,1.125,0.787,0.372,0.647,0.607,��쐼,3.6,��
2021/04/19,04:10,0.624,0.914,0.583,1.125,0.788,0.370,0.647,0.609,�쐼,4.3,��
2021/04/19,04:20,0.622,0.913,0.583,1.126,0.787,0.372,0.648,0.608,���쐼,3.7,��
2021/04/19,04:30,0.622,0.913,0.583,1.124,0.788,0.369,0.649,0.607,��,5.4,��
2021/04/19,04:40,0.623,0.914,0.582,1.125,0.788,0.372,0.647,0.608,��,5.6,��
2021/04/19,04:50,0.623,0.914,0.582,1.124,0.788,0.371,0.648,0.608,��,4.6,��
2021/04/19,05:00,0.623,0.915,0.580,1.125,0.787,0.370,0.646,0.607,��,4.9,��
2021/04/19,05:10,0.625,0.913,0.581,1.125,0.786,0.371,0.647,0.607,���쐼,3.8,��
2021/04/19,05:20,0.623,0.914,0.582,1.124,0.788,0.370,0.647,0.608,��,5.3,��
2021/04/19,05:30,0.624,0.914,0.582,1.123,0.787,0.371,0.646,0.607,��,6.3,��
2021/04/19,05:40,0.624,0.911,0.581,1.125,0.789,0.370,0.648,0.607,��,5.8,��
2021/04/19,05:50,0.625,0.913,0.581,1.126,0.789,0.370,0.648,0.607,��,6.6,��
2021/04/19,06:00,0.622,0.912,0.581,1.124,0.788,0.370,0.648,0.607,���쐼,5.0,��
2021/04/19,06:10,0.623,0.915,0.582,1.126,0.789,0.371,0.649,0.606,��,6.6,��
2021/04/19,06:20,0.622,0.913,0.581,1.126,0.790,0.370,0.648,0.607,���쐼,6.9,��
2021/04/19,06:30,0.623,0.914,0.583,1.127,0.787,0.370,0.646,0.608,���쐼,9.9,��
2021/04/19,06:40,0.622,0.915,0.582,1.126,0.787,0.371,0.648,0.607,���쐼,7.5,��
2021/04/19,06:50,0.624,0.916,0.581,1.123,0.789,0.370,0.646,0.607,���쐼,6.8,��
2021/04/19,07:00,0.623,0.917,0.581,1.126,0.789,0.372,0.648,0.608,��,8.0,��
2021/04/19,07:10,0.625,0.915,0.582,1.127,0.789,0.371,0.648,0.608,��,9.8,��
2021/04/19,07:20,0.624,0.916,0.581,1.125,0.788,0.371,0.647,0.608,��,11.1,��
2021/04/19,07:30,0.625,0.917,0.582,1.123,0.789,0.369,0.648,0.610,��,10.2,��
2021/04/19,07:40,0.625,0.916,0.584,1.127,0.789,0.369,0.647,0.610,��,9.7,��
2021/04/19,07:50,0.623,0.914,0.581,1.128,0.789,0.369,0.648,0.609,��,9.7,��
2021/04/19,08:00,0.623,0.914,0.581,1.127,0.790,0.369,0.648,0.609,��,6.9,��
2021/04/19,08:10,0.624,0.913,0.582,1.127,0.789,0.371,0.647,0.608,��,8.7,��
2021/04/19,08:20,0.625,0.913,0.583,1.127,0.789,0.370,0.648,0.607,��,11.4,��
2021/04/19,08:30,0.626,0.912,0.582,1.127,0.791,0.371,0.646,0.606,��,13.3,��
2021/04/19,08:40,0.625,0.912,0.583,1.128,0.790,0.371,0.645,0.609,��,11.1,��
2021/04/19,08:50,0.625,0.912,0.580,1.126,0.790,0.370,0.646,0.606,��,10.6,��
2021/04/19,09:00,0.626,0.910,0.582,1.126,0.791,0.370,0.647,0.606,��,8.9,��
2021/04/19,09:10,0.625,0.912,0.582,1.128,0.789,0.369,0.646,0.606,��,10.0,��
2021/04/19,09:20,0.626,0.913,0.583,1.129,0.789,0.370,0.645,0.605,��,11.6,��
2021/04/19,09:30,0.626,0.913,0.584,1.126,0.792,0.370,0.647,0.607,��,11.7,��
2021/04/19,09:40,0.627,0.912,0.584,1.127,0.791,0.370,0.647,0.606,��,10.6,��
2021/04/19,09:50,0.624,0.913,0.584,1.130,0.793,0.371,0.647,0.605,��,10.2,��
2021/04/19,10:00,0.623,0.914,0.584,1.130,0.790,0.371,0.646,0.606,��,10.7,��
2021/04/19,10:10,0.624,0.914,0.585,1.131,0.792,0.371,0.648,0.606,��,9.5,��
2021/04/19,10:20,0.624,0.914,0.584,1.130,0.791,0.370,0.646,0.607,��,10.3,��
2021/04/19,10:30,0.623,0.912,0.583,1.129,0.792,0.372,0.646,0.607,��,11.8,��
2021/04/19,10:40,0.623,0.915,0.583,1.129,0.791,0.370,0.646,0.607,��,12.0,��
2021/04/19,10:50,0.625,0.912,0.584,1.128,0.791,0.371,0.649,0.606,��,9.7,��
2021/04/19,11:00,0.625,0.916,0.584,1.129,0.788,0.371,0.649,0.606,��,8.2,��
2021/04/19,11:10,0.624,0.917,0.581,1.130,0.789,0.372,0.648,0.607,��,10.0,��
2021/04/19,11:20,0.624,0.915,0.583,1.129,0.791,0.373,0.648,0.606,��,11.4,��
2021/04/19,11:30,0.624,0.916,0.583,1.131,0.794,0.372,0.648,0.606,��,9.3,��
2021/04/19,11:40,0.625,0.919,0.581,1.131,0.793,0.373,0.649,0.608,��,9.8,��
2021/04/19,11:50,0.626,0.917,0.580,1.129,0.791,0.372,0.651,0.606,��,9.0,��
2021/04/19,12:00,0.625,0.920,0.582,1.131,0.795,0.372,0.649,0.607,���쐼,8.2,��
2021/04/19,12:10,0.625,0.919,0.583,1.130,0.795,0.373,0.647,0.607,��,6.8,��
2021/04/19,12:20,0.624,0.921,0.584,1.128,0.796,0.371,0.649,0.608,��,10.0,��
2021/04/19,12:30,0.626,0.921,0.583,1.132,0.793,0.372,0.648,0.608,��,8.7,��
2021/04/19,12:40,0.626,0.917,0.582,1.132,0.794,0.372,0.649,0.608,��,9.4,��
2021/04/19,12:50,0.626,0.920,0.583,1.135,0.793,0.371,0.649,0.607,��,8.6,��
2021/04/19,13:00,0.627,0.919,0.582,1.134,0.796,0.372,0.649,0.607,��,8.4,��
2021/04/19,13:10,0.627,0.915,0.584,1.134,0.797,0.372,0.649,0.607,��,9.5,��
2021/04/19,13:20,0.626,0.919,0.581,1.132,0.796,0.374,0.650,0.608,��,8.5,��
2021/04/19,13:30,0.626,0.919,0.584,1.134,0.797,0.372,0.649,0.606,���k��,8.3,��
2021/04/19,13:40,0.626,0.920,0.581,1.134,0.796,0.373,0.650,0.606,��,10.9,��
2021/04/19,13:50,0.628,0.919,0.584,1.135,0.796,0.371,0.648,0.607,��,11.0,��
2021/04/19,14:00,0.628,0.918,0.583,1.136,0.797,0.371,0.650,0.608,��,11.9,��
2021/04/19,14:10,0.627,0.920,0.584,1.134,0.796,0.372,0.649,0.606,���k��,8.9,��
2021/04/19,14:20,0.626,0.920,0.584,1.137,0.796,0.372,0.649,0.607,���k��,6.2,��
2021/04/19,14:30,0.627,0.920,0.582,1.135,0.796,0.372,0.648,0.607,���k��,6.7,��
2021/04/19,14:40,0.627,0.919,0.583,1.134,0.796,0.372,0.649,0.609,���k��,8.3,��
2021/04/19,14:50,0.628,0.918,0.583,1.136,0.800,0.373,0.649,0.607,��,7.7,��
2021/04/19,15:00,0.629,0.920,0.584,1.137,0.796,0.372,0.648,0.608,���k��,10.2,��
2021/04/19,15:10,0.626,0.922,0.585,1.135,0.798,0.373,0.652,0.608,��,6.5,��
2021/04/19,15:20,0.629,0.923,0.586,1.132,0.799,0.371,0.650,0.608,��,9.5,��
2021/04/19,15:30,0.627,0.922,0.579,1.134,0.797,0.373,0.649,0.607,��,11.6,��
2021/04/19,15:40,0.628,0.922,0.585,1.134,0.796,0.371,0.649,0.608,��,10.8,��
2021/04/19,15:50,0.628,0.921,0.586,1.133,0.785,0.372,0.649,0.607,��,10.2,��
2021/04/19,16:00,0.629,0.922,0.585,1.134,0.796,0.372,0.649,0.607,���쐼,9.6,��
2021/04/19,16:10,0.628,0.923,0.584,1.136,0.797,0.373,0.648,0.607,��,8.1,��
2021/04/19,16:20,0.628,0.921,0.583,1.134,0.797,0.374,0.648,0.605,��,7.8,��
2021/04/19,16:30,0.628,0.920,0.584,1.136,0.797,0.372,0.650,0.607,��,9.9,��
2021/04/19,16:40,0.625,0.920,0.587,1.135,0.797,0.374,0.649,0.607,��,7.6,��
2021/04/19,16:50,0.626,0.921,0.584,1.133,0.798,0.373,0.648,0.607,���k��,7.0,��
2021/04/19,17:00,0.627,0.923,0.584,1.134,0.798,0.373,0.649,0.607,��,6.5,��
2021/04/19,17:10,0.625,0.926,0.586,1.134,0.798,0.374,0.650,0.609,��,6.2,��
2021/04/19,17:20,0.625,0.925,0.584,1.135,0.798,0.374,0.649,0.609,��,5.4,��
2021/04/19,17:30,0.625,0.925,0.585,1.135,0.798,0.371,0.649,0.609,���쐼,4.2,��
2021/04/19,17:40,0.626,0.925,0.584,1.135,0.798,0.373,0.648,0.610,��,8.4,��
2021/04/19,17:50,0.626,0.925,0.585,1.136,0.798,0.373,0.649,0.611,��,8.8,��
2021/04/19,18:00,0.628,0.926,0.584,1.139,0.798,0.373,0.649,0.610,��,5.7,��
2021/04/19,18:10,0.631,0.925,0.585,1.140,0.798,0.373,0.648,0.609,��,4.8,��
2021/04/19,18:20,0.628,0.928,0.585,1.137,0.799,0.373,0.648,0.611,��,3.1,��
2021/04/19,18:30,0.629,0.924,0.585,1.138,0.800,0.373,0.648,0.608,��,4.5,��
2021/04/19,18:40,0.631,0.926,0.587,1.141,0.801,0.372,0.649,0.611,���쐼,5.0,��
2021/04/19,18:50,0.628,0.926,0.585,1.139,0.801,0.374,0.649,0.612,���쐼,4.4,��
2021/04/19,19:00,0.629,0.927,0.587,1.139,0.800,0.373,0.650,0.610,���쐼,5.9,��
2021/04/19,19:10,0.629,0.926,0.586,1.139,0.799,0.373,0.650,0.610,���쐼,6.2,��
2021/04/19,19:20,0.629,0.927,0.587,1.138,0.801,0.372,0.650,0.608,�쐼,5.8,��
2021/04/19,19:30,0.630,0.925,0.586,1.137,0.798,0.372,0.650,0.609,���쐼,5.6,��
2021/04/19,19:40,0.629,0.925,0.584,1.138,0.800,0.374,0.651,0.609,���쐼,6.8,��
2021/04/19,19:50,0.627,0.925,0.586,1.138,0.801,0.373,0.651,0.610,���쐼,4.5,��
2021/04/19,20:00,0.629,0.925,0.586,1.139,0.801,0.371,0.651,0.609,�쐼,3.0,��
2021/04/19,20:10,0.630,0.926,0.586,1.139,0.800,0.373,0.650,0.608,�쐼,2.6,��
2021/04/19,20:20,0.628,0.925,0.586,1.138,0.800,0.372,0.650,0.610,��쐼,3.1,��
2021/04/19,20:30,0.627,0.926,0.585,1.140,0.801,0.372,0.651,0.610,��쐼,1.9,��
2021/04/19,20:40,0.627,0.925,0.583,1.138,0.802,0.371,0.650,0.610,��,2.6,��
2021/04/19,20:50,0.629,0.925,0.585,1.138,0.802,0.373,0.650,0.609,���쐼,3.8,��
2021/04/19,21:00,0.629,0.925,0.586,1.137,0.802,0.372,0.650,0.610,�쐼,4.8,��
2021/04/19,21:10,0.628,0.923,0.586,1.140,0.801,0.373,0.651,0.609,�쐼,4.2,��
2021/04/19,21:20,0.628,0.926,0.585,1.140,0.801,0.371,0.651,0.609,��쐼,3.4,��
2021/04/19,21:30,0.628,0.925,0.586,1.141,0.800,0.373,0.650,0.609,��쐼,4.1,��
2021/04/19,21:40,0.630,0.925,0.587,1.139,0.802,0.374,0.650,0.611,�쐼,3.9,��
2021/04/19,21:50,0.628,0.924,0.586,1.137,0.801,0.372,0.650,0.609,��쐼,4.1,��
2021/04/19,22:00,0.629,0.926,0.586,1.139,0.802,0.373,0.651,0.609,��쐼,5.3,��
2021/04/19,22:10,0.628,0.926,0.586,1.140,0.801,0.372,0.650,0.609,��쐼,6.0,��
2021/04/19,22:20,0.627,0.925,0.587,1.142,0.802,0.372,0.651,0.611,��,4.4,��
2021/04/19,22:30,0.630,0.924,0.587,1.140,0.803,0.373,0.651,0.611,��쐼,3.8,��
2021/04/19,22:40,0.628,0.923,0.585,1.140,0.800,0.373,0.650,0.610,��쐼,3.7,��
2021/04/19,22:50,0.629,0.926,0.585,1.139,0.801,0.372,0.649,0.609,��쐼,4.2,��
2021/04/19,23:00,0.630,0.923,0.586,1.138,0.801,0.373,0.651,0.610,��쐼,3.3,��
2021/04/19,23:10,0.628,0.923,0.586,1.140,0.802,0.372,0.651,0.609,��쐼,3.6,��
2021/04/19,23:20,0.628,0.924,0.587,1.139,0.803,0.373,0.652,0.608,��쐼,3.8,��
2021/04/19,23:30,0.631,0.925,0.587,1.139,0.798,0.373,0.651,0.609,��쐼,4.6,��
2021/04/19,23:40,0.628,0.924,0.587,1.140,0.800,0.373,0.649,0.610,��,5.6,��
2021/04/19,23:50,0.627,0.925,0.587,1.138,0.800,0.372,0.650,0.608,��쐼,5.0,��
